Regional Weather Roundup
Issued by NWS Cleveland, OH

Home | Current Version | Previous Version | Graphics & Text | Print | Product List | Glossary On
Versions: 1 2 3 4 5 6 7 8 9 10 11 12 13 14 15 16 17 18 19 20 21 22 23 24 25 26 27 28 29 30 31 32 33 34 35 36 37 38 39 40 41 42 43 44 45 46 47 48 49 50
000
ASUS41 KCLE 191510
RWRCLE
OHIO REGIONAL WEATHER ROUNDUP
NATIONAL WEATHER SERVICE WILMINGTON, OH
1000 AM EST FRI DEC 19 2014

NOTE: "FAIR" INDICATES FEW OR NO CLOUDS BELOW 12,000 FEET WITH NO
SIGNIFICANT WEATHER AND/OR OBSTRUCTIONS TO VISIBILITY.

OHZ001>008-015>018-024>027-034-035-043-044-191600-
   NORTHWEST OHIO

CITY           SKY/WX    TMP DP  RH WIND       PRES   REMARKS
DEFIANCE       CLOUDY    29  24  82 W3        30.27S
FINDLAY        CLOUDY    29  24  82 NW6       30.25S HAZE    WCI  23
TOLEDO EXPRESS CLOUDY    29  25  85 CALM      30.26S FOG
TOLEDO METCALF CLOUDY    30  25  81 NE5       30.27S WCI  25
LIMA           CLOUDY    30  23  75 W6        30.26R HAZE    WCI  24
$$

OHZ009>014-019>023-028>033-038-089-191600-
   NORTHEAST OHIO

CITY           SKY/WX    TMP DP  RH WIND       PRES   REMARKS
CLE-HOPKINS    FLURRIES  30  23  75 N9        30.27S WCI  22
CLE-LAKEFRONT  CLOUDY    32  23  69 N13       30.25R WCI  22
CUY CO. ARPT   CLOUDY    32  25  74 NW9       30.24R WCI  24
LORAIN-ELYRIA  CLOUDY    28  26  92 NW6       30.26R WCI  22
ASHTABULA      CLOUDY    30  23  75 N6        30.23R WCI  24
AKRON-CANTON   FLURRIES  30  26  85 NW6       30.21S WCI  24
WOOSTER        CLOUDY    29  26  89 N8        30.23S WCI  21
MANSFIELD      CLOUDY    28  26  92 NW5       30.22S FOG     WCI  23
YOUNGSTOWN     FLURRIES  28  26  92 W6        30.20S WCI  22
$$

OHZ042-051>053-060>062-070>072-077>081-191600-
  SOUTHWEST OHIO

CITY           SKY/WX    TMP DP  RH WIND       PRES   REMARKS
CINC-COVINGTON CLOUDY    28  18  66 NE3       30.29S
CINC-LUNKEN    CLOUDY    29  20  69 CALM      30.33R
HAMILTON       CLOUDY    29  21  72 CALM      30.32R
DAYTON         CLOUDY    28  21  75 W3        30.29R
WRIGHT-PAT AFB CLOUDY    28  20  74 W3        30.30R
DAYTON GENERAL CLOUDY    27  20  75 CALM      30.28R
WILMINGTON     CLOUDY    27  20  75 SW3       30.27R
$$

OHZ036-037-039>041-045>050-054>059-063>069-073>076-082>088-191600-
  CENTRAL AND SOUTHEAST OHIO

CITY           SKY/WX    TMP DP  RH WIND       PRES   REMARKS
COLUMBUS       CLOUDY    29  22  75 W5        30.28R WCI  24
OSU AIRPORT    CLOUDY    28  22  78 NW3       30.27R HAZE
BOLTON FIELD   CLOUDY    28  25  86 CALM      30.28R FOG
RICKENBACK AFB CLOUDY    29  22  76 W3        30.28R
NEWARK         CLOUDY    30  23  75 W5        30.26R WCI  25
MARION         CLOUDY    28  24  85 NW5       30.26R FOG     WCI  23
LANCASTER      CLOUDY    29  23  78 W3        30.28R
ZANESVILLE     CLOUDY    28  22  78 W3        30.26R
NEW PHILLY     CLOUDY    30  25  81 W5        30.25R HAZE    WCI  25
$$


USA.gov is the U.S. government's official web portal to all federal, state and local government web resources and services.